Location: La Oliva
(42.2466°N, 2.9955°E)
Time: 07:35:21
(UTC+00:00)

Cosmos 1812 Rocket - Pass Details

Date: 22 April 2021
Orbit: 606 x 631 km, 82.5° (Epoch: 07 May)

Event Time Altitude Azimuth Distance (km) Brightness Sun altitude
Exits shadow 20:14:33 - 192° (SSW) 2,626 6.5 -16.9°
Reaches altitude 10° 20:16:07 10° 194° (SSW) 1,993 5.9 -17.1°
Maximum altitude 20:20:32 72° 278° (W) 663 3.8 -17.7°
Drops below altitude 10° 20:25:01 10° 4° (N) 2,020 6.6 -18.4°
Sets 20:27:17 0° 6° (N) 2,933 7.5 -18.7°
